Check out our new BloomSky Weather System.

Active alerts


No alerts


Thunder radar  blitzortung!


Rain radar more information rain snow radar


Visit our other weather sites:

Template documentation
and downloads

And another site



Weather Underground History page Text

Daily Summary for February 4, 2017 Units:  Metric    English   Both
« Previous Day
Next Day »
Daily Weekly Monthly Yearly Custom
  High: Low: Average:
Temperature: 17.2 °C 8.8 °C 12.3 °C
Dew Point: 16.4 °C 2.2 °C 7.9 °C
Humidity: 95 % 63 % 75 %
Wind Speed: 12.9 km/h 0 km/h 3.9 km/h
Wind Gust: 20.9 km/h - -
Wind:- - ESE
Pressure: 1027.7 hPa 1019.5 hPa -
Precipitation: 0 mm    
Historical Graphs
 
 
Tabular Data for February 4, 2017
Time Temperature Dew Point Pressure Wind Wind Speed Wind Gust Humidity Rainfall Rate (Hourly)
00:03 11.3 °C 5.6 °C 1027.7 hPa NNE 3.2 km/h 14.5 km/h 68 % 0 mm
00:08 11.3 °C 5.6 °C 1027.7 hPa Calm   14.5 km/h 68 % 0 mm
00:13 11.3 °C 5.6 °C 1027.7 hPa ENE 3.2 km/h 14.5 km/h 68 % 0 mm
00:18 11.2 °C 5.5 °C 1027.7 hPa ENE 1.6 km/h 14.5 km/h 68 % 0 mm
00:23 11.2 °C 5.5 °C 1027.7 hPa ENE 3.2 km/h 14.5 km/h 68 % 0 mm
00:28 11.2 °C 5.5 °C 1027.3 hPa NNW 4.8 km/h 14.5 km/h 68 % 0 mm
00:33 11.2 °C 5.5 °C 1027.3 hPa East 3.2 km/h 19.3 km/h 68 % 0 mm
00:38 11.2 °C 5.5 °C 1027 hPa ESE 1.6 km/h 19.3 km/h 68 % 0 mm
00:43 11.1 °C 5.4 °C 1027 hPa ENE 12.9 km/h 19.3 km/h 68 % 0 mm
00:48 11.1 °C 5.4 °C 1027.3 hPa NE 12.9 km/h 14.5 km/h 68 % 0 mm
00:53 11.1 °C 5.6 °C 1027.3 hPa East 1.6 km/h 14.5 km/h 69 % 0 mm
00:58 11 °C 5.5 °C 1027.3 hPa ENE 4.8 km/h 14.5 km/h 69 % 0 mm
01:03 11 °C 5.5 °C 1027 hPa SSE 6.4 km/h 14.5 km/h 69 % 0 mm
01:08 10.9 °C 5.4 °C 1027 hPa East 12.9 km/h 20.9 km/h 69 % 0 mm
01:13 10.9 °C 5.4 °C 1027 hPa ENE 6.4 km/h 20.9 km/h 69 % 0 mm
01:18 10.9 °C 5.6 °C 1027 hPa ENE 4.8 km/h 20.9 km/h 70 % 0 mm
01:23 10.9 °C 5.6 °C 1026.6 hPa East 1.6 km/h 16.1 km/h 70 % 0 mm
01:28 10.9 °C 5.6 °C 1026.6 hPa North 8 km/h 14.5 km/h 70 % 0 mm
01:33 10.8 °C 5.5 °C 1026.3 hPa ENE 8 km/h 17.7 km/h 70 % 0 mm
01:39 10.8 °C 5.5 °C 1026.6 hPa ENE 6.4 km/h 17.7 km/h 70 % 0 mm
01:44 10.7 °C 5.5 °C 1026.6 hPa ESE 3.2 km/h 17.7 km/h 70 % 0 mm
01:49 10.7 °C 5.7 °C 1026.6 hPa SE 1.6 km/h 19.3 km/h 71 % 0 mm
01:54 10.6 °C 5.6 °C 1026.6 hPa East 1.6 km/h 19.3 km/h 71 % 0 mm
01:59 10.6 °C 5.6 °C 1026.6 hPa Calm   19.3 km/h 71 % 0 mm
02:04 10.6 °C 5.6 °C 1026.3 hPa ESE 4.8 km/h 16.1 km/h 71 % 0 mm
02:09 10.5 °C 5.5 °C 1026.3 hPa East 6.4 km/h 16.1 km/h 71 % 0 mm
02:14 10.4 °C 5.4 °C 1026 hPa East 6.4 km/h 11.3 km/h 71 % 0 mm
02:19 10.4 °C 5.6 °C 1026 hPa East 8 km/h 11.3 km/h 72 % 0 mm
02:24 10.4 °C 5.4 °C 1026 hPa East 11.3 km/h 12.9 km/h 71 % 0 mm
02:29 10.4 °C 5.6 °C 1026 hPa ESE 6.4 km/h 19.3 km/h 72 % 0 mm
02:34 10.3 °C 5.5 °C 1026 hPa ESE 6.4 km/h 19.3 km/h 72 % 0 mm
02:39 10.3 °C 5.5 °C 1026 hPa Calm   19.3 km/h 72 % 0 mm
02:44 10.3 °C 5.5 °C 1026 hPa North 8 km/h 19.3 km/h 72 % 0 mm
02:49 10.3 °C 5.5 °C 1026.3 hPa North 1.6 km/h 19.3 km/h 72 % 0 mm
02:54 10.3 °C 5.5 °C 1026.3 hPa ENE 6.4 km/h 19.3 km/h 72 % 0 mm
02:59 10.3 °C 5.5 °C 1026.3 hPa Calm   14.5 km/h 72 % 0 mm
03:04 10.2 °C 5.4 °C 1026 hPa ESE 3.2 km/h 14.5 km/h 72 % 0 mm
03:09 10.2 °C 5.4 °C 1026 hPa East 1.6 km/h 14.5 km/h 72 % 0 mm
03:14 10.2 °C 5.6 °C 1026 hPa ENE 1.6 km/h 14.5 km/h 73 % 0 mm
03:19 10.2 °C 5.4 °C 1026.3 hPa NE 3.2 km/h 14.5 km/h 72 % 0 mm
03:24 10.1 °C 5.5 °C 1026 hPa NNE 1.6 km/h 12.9 km/h 73 % 0 mm
03:30 10.1 °C 5.3 °C 1026 hPa ENE 9.7 km/h 12.9 km/h 72 % 0 mm
03:35 10 °C 5.4 °C 1026 hPa ENE 6.4 km/h 9.7 km/h 73 % 0 mm
03:40 10 °C 5.4 °C 1025.6 hPa SE 1.6 km/h 9.7 km/h 73 % 0 mm
03:45 9.9 °C 5.3 °C 1025.6 hPa North 3.2 km/h 9.7 km/h 73 % 0 mm
03:50 9.9 °C 5.3 °C 1025.6 hPa East 3.2 km/h 9.7 km/h 73 % 0 mm
03:51 9.9 °C 5.3 °C 1025.6 hPa SE 6.4 km/h 9.7 km/h 73 % 0 mm
03:56 9.8 °C 5.2 °C 1025.3 hPa ENE 6.4 km/h 12.9 km/h 73 % 0 mm
04:01 9.8 °C 5.2 °C 1025.3 hPa ENE 3.2 km/h 12.9 km/h 73 % 0 mm
04:06 9.8 °C 5.2 °C 1025.3 hPa East 3.2 km/h 12.9 km/h 73 % 0 mm
04:11 9.7 °C 5.1 °C 1025.3 hPa East 1.6 km/h 9.7 km/h 73 % 0 mm
04:16 9.6 °C 5 °C 1025.3 hPa ENE 4.8 km/h 8 km/h 73 % 0 mm
04:21 9.6 °C 5 °C 1025.3 hPa ENE 3.2 km/h 12.9 km/h 73 % 0 mm
04:26 9.4 °C 4.8 °C 1025.3 hPa NE 1.6 km/h 12.9 km/h 73 % 0 mm
04:31 9.3 °C 4.7 °C 1025.3 hPa NNE 3.2 km/h 12.9 km/h 73 % 0 mm
04:36 9.3 °C 4.7 °C 1025.3 hPa East 3.2 km/h 11.3 km/h 73 % 0 mm
04:41 9.3 °C 4.7 °C 1024.9 hPa East 3.2 km/h 12.9 km/h 73 % 0 mm
04:46 9.3 °C 4.7 °C 1024.9 hPa East 4.8 km/h 12.9 km/h 73 % 0 mm
04:51 9.2 °C 4.6 °C 1025.3 hPa ENE 3.2 km/h 12.9 km/h 73 % 0 mm
04:56 9.2 °C 4.4 °C 1025.3 hPa NE 1.6 km/h 12.9 km/h 72 % 0 mm
05:01 9.2 °C 4.2 °C 1025.3 hPa NE 3.2 km/h 12.9 km/h 71 % 0 mm
05:06 9.2 °C 4.2 °C 1024.9 hPa East 1.6 km/h 9.7 km/h 71 % 0 mm
05:11 9.2 °C 4.2 °C 1024.9 hPa ENE 3.2 km/h 9.7 km/h 71 % 0 mm
05:12 9.2 °C 4.2 °C 1024.9 hPa ENE 4.8 km/h 9.7 km/h 71 % 0 mm
05:17 9.1 °C 3.9 °C 1024.9 hPa East 4.8 km/h 11.3 km/h 70 % 0 mm
05:22 9.1 °C 3.9 °C 1025.3 hPa SSE 1.6 km/h 12.9 km/h 70 % 0 mm
05:27 9.1 °C 3.9 °C 1025.3 hPa East 4.8 km/h 12.9 km/h 70 % 0 mm
05:32 9.1 °C 3.9 °C 1025.3 hPa ENE 3.2 km/h 12.9 km/h 70 % 0 mm
05:37 9.1 °C 3.7 °C 1025.3 hPa Calm   9.7 km/h 69 % 0 mm
05:38 9.1 °C 3.7 °C 1025.3 hPa ENE 1.6 km/h 9.7 km/h 69 % 0 mm
05:43 9.1 °C 3.7 °C 1025.3 hPa East 3.2 km/h 9.7 km/h 69 % 0 mm
05:48 9.1 °C 3.7 °C 1025.3 hPa East 3.2 km/h 9.7 km/h 69 % 0 mm
05:53 9.1 °C 3.7 °C 1025.3 hPa NNW 1.6 km/h 9.7 km/h 69 % 0 mm
05:58 9.1 °C 3.9 °C 1025.3 hPa SE 1.6 km/h 9.7 km/h 70 % 0 mm
06:03 9.1 °C 3.9 °C 1025.3 hPa SE 3.2 km/h 9.7 km/h 70 % 0 mm
06:08 9.2 °C 3.8 °C 1025.3 hPa ESE 3.2 km/h 9.7 km/h 69 % 0 mm
06:13 9.1 °C 3.3 °C 1025.6 hPa ESE 4.8 km/h 8 km/h 67 % 0 mm
06:18 9.1 °C 2.9 °C 1025.6 hPa East 1.6 km/h 9.7 km/h 65 % 0 mm
06:23 9.1 °C 2.6 °C 1025.6 hPa ESE 1.6 km/h 9.7 km/h 64 % 0 mm
06:28 9.1 °C 2.4 °C 1026 hPa East 4.8 km/h 9.7 km/h 63 % 0 mm
06:33 8.9 °C 2.2 °C 1026 hPa ESE 1.6 km/h 8 km/h 63 % 0 mm
06:38 8.9 °C 2.2 °C 1026 hPa East 6.4 km/h 9.7 km/h 63 % 0 mm
06:43 8.9 °C 2.2 °C 1026 hPa East 4.8 km/h 9.7 km/h 63 % 0 mm
06:48 8.9 °C 2.2 °C 1026 hPa ESE 1.6 km/h 9.7 km/h 63 % 0 mm
06:53 8.9 °C 2.5 °C 1026 hPa ESE 6.4 km/h 9.7 km/h 64 % 0 mm
06:58 8.9 °C 2.5 °C 1026 hPa East 3.2 km/h 8 km/h 64 % 0 mm
07:03 8.9 °C 2.5 °C 1026.3 hPa East 1.6 km/h 8 km/h 64 % 0 mm
07:09 8.9 °C 2.2 °C 1026 hPa North 1.6 km/h 8 km/h 63 % 0 mm
07:14 8.9 °C 2.2 °C 1026 hPa ESE 1.6 km/h 9.7 km/h 63 % 0 mm
07:19 8.9 °C 2.5 °C 1026 hPa NE 1.6 km/h 9.7 km/h 64 % 0 mm
07:24 8.9 °C 2.2 °C 1026 hPa ENE 1.6 km/h 9.7 km/h 63 % 0 mm
07:29 8.8 °C 2.4 °C 1026 hPa SE 3.2 km/h 9.7 km/h 64 % 0 mm
07:34 8.8 °C 2.4 °C 1026 hPa Calm   9.7 km/h 64 % 0 mm
07:39 8.9 °C 2.5 °C 1026.3 hPa East 1.6 km/h 9.7 km/h 64 % 0 mm
07:44 8.9 °C 2.5 °C 1026.3 hPa NNE 4.8 km/h 9.7 km/h 64 % 0 mm
07:49 8.9 °C 2.5 °C 1026 hPa East 1.6 km/h 8 km/h 64 % 0 mm
07:54 8.9 °C 2.5 °C 1026 hPa NE 1.6 km/h 9.7 km/h 64 % 0 mm
07:59 8.9 °C 2.5 °C 1026 hPa East 1.6 km/h 9.7 km/h 64 % 0 mm
08:04 8.9 °C 2.5 °C 1026.3 hPa NNW 3.2 km/h 9.7 km/h 64 % 0 mm
08:09 8.9 °C 2.5 °C 1026.3 hPa Calm   9.7 km/h 64 % 0 mm
08:14 8.9 °C 2.7 °C 1026.3 hPa Calm   8 km/h 65 % 0 mm
08:19 9 °C 2.6 °C 1026.3 hPa ENE 1.6 km/h 6.4 km/h 64 % 0 mm
08:24 9 °C 2.6 °C 1026.3 hPa ENE 4.8 km/h 11.3 km/h 64 % 0 mm
08:29 9 °C 2.8 °C 1026.3 hPa NW 1.6 km/h 11.3 km/h 65 % 0 mm
08:34 9.1 °C 2.9 °C 1026.3 hPa Calm   11.3 km/h 65 % 0 mm
08:39 9 °C 2.6 °C 1026.3 hPa East 1.6 km/h 11.3 km/h 64 % 0 mm
08:44 9.1 °C 2.9 °C 1026.3 hPa SW 1.6 km/h 14.5 km/h 65 % 0 mm
08:49 9 °C 2.8 °C 1026.3 hPa Calm   14.5 km/h 65 % 0 mm
08:54 8.9 °C 2.7 °C 1026.6 hPa Calm   14.5 km/h 65 % 0 mm
08:59 9.1 °C 3.1 °C 1026.6 hPa WNW 1.6 km/h 11.3 km/h 66 % 0 mm
09:04 9.1 °C 2.9 °C 1026.6 hPa ENE 1.6 km/h 11.3 km/h 65 % 0 mm
09:09 9.1 °C 3.1 °C 1026.6 hPa NNW 1.6 km/h 11.3 km/h 66 % 0 mm
09:14 9.1 °C 2.9 °C 1026.6 hPa East 3.2 km/h 9.7 km/h 65 % 0 mm
09:19 9.2 °C 3.2 °C 1026.6 hPa ESE 1.6 km/h 9.7 km/h 66 % 0 mm
09:24 9.3 °C 3.3 °C 1026.6 hPa Calm   9.7 km/h 66 % 0 mm
09:29 9.5 °C 3.5 °C 1026.6 hPa ENE 4.8 km/h 9.7 km/h 66 % 0 mm
09:35 9.5 °C 3.5 °C 1026.6 hPa NNW 3.2 km/h 9.7 km/h 66 % 0 mm
09:40 9.6 °C 3.6 °C 1026.6 hPa North 4.8 km/h 9.7 km/h 66 % 0 mm
09:45 9.6 °C 3.6 °C 1026.6 hPa NNE 1.6 km/h 9.7 km/h 66 % 0 mm
09:50 9.7 °C 3.7 °C 1026.6 hPa NNW 4.8 km/h 9.7 km/h 66 % 0 mm
09:55 9.8 °C 3.5 °C 1026.6 hPa ENE 8 km/h 9.7 km/h 65 % 0 mm
10:00 9.8 °C 3.5 °C 1026.6 hPa Calm   11.3 km/h 65 % 0 mm
10:05 9.9 °C 3.6 °C 1026.6 hPa ENE 3.2 km/h 11.3 km/h 65 % 0 mm
10:10 10.1 °C 4 °C 1027 hPa Calm   11.3 km/h 66 % 0 mm
10:15 10.3 °C 4.2 °C 1027 hPa Calm   11.3 km/h 66 % 0 mm
10:20 10.3 °C 4 °C 1027 hPa SE 1.6 km/h 9.7 km/h 65 % 0 mm
10:25 10.3 °C 4 °C 1027.3 hPa ENE 3.2 km/h 9.7 km/h 65 % 0 mm
10:30 10.2 °C 4.1 °C 1027.3 hPa ENE 3.2 km/h 9.7 km/h 66 % 0 mm
10:35 10.3 °C 4.4 °C 1027 hPa East 1.6 km/h 9.7 km/h 67 % 0 mm
10:40 10.3 °C 4.2 °C 1027 hPa ESE 1.6 km/h 9.7 km/h 66 % 0 mm
10:45 10.3 °C 4.4 °C 1027 hPa ENE 3.2 km/h 8 km/h 67 % 0 mm
10:50 10.4 °C 4.5 °C 1027 hPa SE 4.8 km/h 8 km/h 67 % 0 mm
10:55 10.4 °C 4.5 °C 1027 hPa ESE 1.6 km/h 8 km/h 67 % 0 mm
11:00 10.4 °C 4.3 °C 1027 hPa NNW 1.6 km/h 6.4 km/h 66 % 0 mm
11:05 10.4 °C 4.3 °C 1026.6 hPa NNE 4.8 km/h 6.4 km/h 66 % 0 mm
11:10 10.6 °C 4.7 °C 1026.6 hPa East 4.8 km/h 6.4 km/h 67 % 0 mm
11:15 10.6 °C 4.5 °C 1026.6 hPa NNE 3.2 km/h 6.4 km/h 66 % 0 mm
11:20 10.6 °C 4.7 °C 1026.6 hPa NW 1.6 km/h 11.3 km/h 67 % 0 mm
11:25 10.7 °C 4.8 °C 1026.6 hPa Calm   11.3 km/h 67 % 0 mm
11:31 10.9 °C 4.8 °C 1026.6 hPa NE 3.2 km/h 11.3 km/h 66 % 0 mm
11:36 10.8 °C 4.9 °C 1026.3 hPa Calm   8 km/h 67 % 0 mm
11:37 10.8 °C 4.9 °C 1026.3 hPa ENE 1.6 km/h 8 km/h 67 % 0 mm
11:42 10.9 °C 5 °C 1026 hPa East 1.6 km/h 8 km/h 67 % 0 mm
11:47 11.2 °C 5.3 °C 1026 hPa SE 1.6 km/h 8 km/h 67 % 0 mm
11:52 11.3 °C 5.4 °C 1026 hPa ESE 4.8 km/h 9.7 km/h 67 % 0 mm
11:57 11.5 °C 5.6 °C 1025.6 hPa NNW 1.6 km/h 11.3 km/h 67 % 0 mm
12:02 11.8 °C 5.9 °C 1025.6 hPa ESE 8 km/h 11.3 km/h 67 % 0 mm
12:07 11.9 °C 5.5 °C 1025.3 hPa Calm   11.3 km/h 65 % 0 mm
12:12 12 °C 5.8 °C 1025.3 hPa ESE 3.2 km/h 9.7 km/h 66 % 0 mm
12:17 12.1 °C 5.9 °C 1024.9 hPa East 8 km/h 9.7 km/h 66 % 0 mm
12:22 12.3 °C 6.1 °C 1024.9 hPa ESE 6.4 km/h 9.7 km/h 66 % 0 mm
12:27 12.4 °C 6.2 °C 1024.6 hPa East 6.4 km/h 11.3 km/h 66 % 0 mm
12:32 12.6 °C 6.6 °C 1024.6 hPa ENE 8 km/h 11.3 km/h 67 % 0 mm
12:37 12.8 °C 6.8 °C 1024.6 hPa NW 1.6 km/h 11.3 km/h 67 % 0 mm
12:42 13 °C 6.8 °C 1024.3 hPa ENE 1.6 km/h 11.3 km/h 66 % 0 mm
12:47 13.1 °C 6.9 °C 1024.3 hPa East 3.2 km/h 9.7 km/h 66 % 0 mm
12:52 12.9 °C 6.9 °C 1024.3 hPa ENE 1.6 km/h 11.3 km/h 67 % 0 mm
12:58 13 °C 7 °C 1024.3 hPa East 1.6 km/h 11.3 km/h 67 % 0 mm
13:03 13.1 °C 7.3 °C 1023.9 hPa ENE 6.4 km/h 11.3 km/h 68 % 0 mm
13:08 12.9 °C 7.1 °C 1023.9 hPa ESE 1.6 km/h 8 km/h 68 % 0 mm
13:13 13 °C 7.2 °C 1023.6 hPa SSE 4.8 km/h 8 km/h 68 % 0 mm
13:18 13 °C 7.4 °C 1023.6 hPa SE 4.8 km/h 11.3 km/h 69 % 0 mm
13:23 13 °C 7.4 °C 1023.6 hPa SSE 3.2 km/h 12.9 km/h 69 % 0 mm
13:28 13.1 °C 7.5 °C 1023.6 hPa ESE 4.8 km/h 12.9 km/h 69 % 0 mm
13:33 13.1 °C 7.8 °C 1023.6 hPa ESE 3.2 km/h 12.9 km/h 70 % 0 mm
13:38 13.2 °C 8.1 °C 1023.2 hPa East 4.8 km/h 11.3 km/h 71 % 0 mm
13:43 13.2 °C 8.3 °C 1023.2 hPa ENE 3.2 km/h 11.3 km/h 72 % 0 mm
13:48 13.3 °C 8.4 °C 1022.9 hPa ESE 9.7 km/h 9.7 km/h 72 % 0 mm
13:53 13.2 °C 8.3 °C 1022.9 hPa ESE 6.4 km/h 11.3 km/h 72 % 0 mm
13:58 13.3 °C 8.2 °C 1022.9 hPa SE 3.2 km/h 11.3 km/h 71 % 0 mm
14:03 13.4 °C 8.5 °C 1022.9 hPa East 3.2 km/h 11.3 km/h 72 % 0 mm
14:08 13.5 °C 8.8 °C 1022.6 hPa East 4.8 km/h 11.3 km/h 73 % 0 mm
14:13 13.5 °C 8.6 °C 1022.6 hPa ESE 4.8 km/h 9.7 km/h 72 % 0 mm
14:18 13.7 °C 8.9 °C 1022.6 hPa SSE 3.2 km/h 9.7 km/h 73 % 0 mm
14:23 13.8 °C 8.6 °C 1022.2 hPa ENE 1.6 km/h 9.7 km/h 71 % 0 mm
14:28 13.9 °C 8.7 °C 1022.2 hPa East 3.2 km/h 9.7 km/h 71 % 0 mm
14:33 13.9 °C 8.7 °C 1022.2 hPa SE 6.4 km/h 11.3 km/h 71 % 0 mm
14:38 14.1 °C 8.9 °C 1022.2 hPa East 4.8 km/h 11.3 km/h 71 % 0 mm
14:44 14 °C 8.8 °C 1022.2 hPa SE 3.2 km/h 11.3 km/h 71 % 0 mm
14:49 13.9 °C 8.7 °C 1022.2 hPa SSE 6.4 km/h 11.3 km/h 71 % 0 mm
14:54 13.9 °C 8.9 °C 1021.9 hPa ENE 4.8 km/h 11.3 km/h 72 % 0 mm
14:59 13.9 °C 8.9 °C 1021.9 hPa SE 3.2 km/h 11.3 km/h 72 % 0 mm
15:04 14.1 °C 9.1 °C 1021.9 hPa SE 6.4 km/h 9.7 km/h 72 % 0 mm
15:09 14.3 °C 9.1 °C 1021.6 hPa SSE 6.4 km/h 9.7 km/h 71 % 0 mm
15:14 14.3 °C 9.3 °C 1021.6 hPa SE 3.2 km/h 14.5 km/h 72 % 0 mm
15:19 14.5 °C 9.5 °C 1021.6 hPa ESE 6.4 km/h 14.5 km/h 72 % 0 mm
15:24 14.6 °C 9.6 °C 1021.6 hPa ESE 6.4 km/h 14.5 km/h 72 % 0 mm
15:29 14.6 °C 9.6 °C 1021.6 hPa ESE 6.4 km/h 14.5 km/h 72 % 0 mm
15:34 14.6 °C 9.8 °C 1021.6 hPa SE 11.3 km/h 14.5 km/h 73 % 0 mm
15:39 14.7 °C 9.9 °C 1021.2 hPa East 6.4 km/h 12.9 km/h 73 % 0 mm
15:44 14.9 °C 9.9 °C 1021.6 hPa SE 1.6 km/h 12.9 km/h 72 % 0 mm
15:49 15.2 °C 10.4 °C 1021.2 hPa ENE 4.8 km/h 11.3 km/h 73 % 0 mm
15:54 15.1 °C 10.1 °C 1021.2 hPa East 9.7 km/h 11.3 km/h 72 % 0 mm
15:59 15 °C 10.4 °C 1021.2 hPa SE 8 km/h 11.3 km/h 74 % 0 mm
16:04 14.9 °C 10.5 °C 1020.9 hPa SE 1.6 km/h 16.1 km/h 75 % 0 mm
16:09 14.9 °C 10.5 °C 1020.9 hPa SSE 4.8 km/h 16.1 km/h 75 % 0 mm
16:14 15 °C 10.6 °C 1020.9 hPa East 4.8 km/h 16.1 km/h 75 % 0 mm
16:19 15.1 °C 10.7 °C 1020.9 hPa ESE 1.6 km/h 16.1 km/h 75 % 0 mm
16:24 15.1 °C 10.7 °C 1020.9 hPa SSE 3.2 km/h 16.1 km/h 75 % 0 mm
16:29 15.1 °C 10.9 °C 1020.9 hPa East 4.8 km/h 12.9 km/h 76 % 0 mm
16:34 15.1 °C 10.9 °C 1020.9 hPa SE 3.2 km/h 14.5 km/h 76 % 0 mm
16:39 14.9 °C 10.7 °C 1020.9 hPa ESE 6.4 km/h 14.5 km/h 76 % 0 mm
16:44 14.9 °C 10.7 °C 1020.9 hPa SSE 1.6 km/h 14.5 km/h 76 % 0 mm
16:49 14.9 °C 10.9 °C 1020.9 hPa SSE 1.6 km/h 12.9 km/h 77 % 0 mm
16:54 14.9 °C 10.9 °C 1020.9 hPa ENE 9.7 km/h 12.9 km/h 77 % 0 mm
17:00 15 °C 11 °C 1020.9 hPa SE 1.6 km/h 14.5 km/h 77 % 0 mm
17:05 15 °C 11 °C 1020.9 hPa SSE 4.8 km/h 14.5 km/h 77 % 0 mm
17:10 15 °C 11 °C 1020.9 hPa ESE 4.8 km/h 14.5 km/h 77 % 0 mm
17:15 15 °C 11.2 °C 1020.9 hPa ESE 1.6 km/h 11.3 km/h 78 % 0 mm
17:20 15.1 °C 11.3 °C 1020.9 hPa ESE 4.8 km/h 11.3 km/h 78 % 0 mm
17:25 15.1 °C 11.3 °C 1020.9 hPa ESE 1.6 km/h 8 km/h 78 % 0 mm
17:30 15.1 °C 11.5 °C 1020.9 hPa ESE 4.8 km/h 9.7 km/h 79 % 0 mm
17:35 15.1 °C 11.5 °C 1020.9 hPa ESE 4.8 km/h 9.7 km/h 79 % 0 mm
17:40 15.1 °C 11.7 °C 1021.2 hPa ESE 6.4 km/h 9.7 km/h 80 % 0 mm
17:45 15.1 °C 11.7 °C 1020.9 hPa East 8 km/h 11.3 km/h 80 % 0 mm
17:50 15.1 °C 11.7 °C 1020.9 hPa ESE 3.2 km/h 11.3 km/h 80 % 0 mm
17:55 15.1 °C 11.7 °C 1020.9 hPa SE 3.2 km/h 11.3 km/h 80 % 0 mm
18:00 15.1 °C 11.7 °C 1021.2 hPa ESE 6.4 km/h 9.7 km/h 80 % 0 mm
18:05 15.1 °C 11.7 °C 1021.2 hPa SE 3.2 km/h 9.7 km/h 80 % 0 mm
18:10 15 °C 11.6 °C 1021.2 hPa East 4.8 km/h 9.7 km/h 80 % 0 mm
18:15 15 °C 11.6 °C 1021.2 hPa ESE 8 km/h 11.3 km/h 80 % 0 mm
18:20 15 °C 11.6 °C 1020.9 hPa SSE 3.2 km/h 11.3 km/h 80 % 0 mm
18:25 14.9 °C 11.5 °C 1020.9 hPa SSE 3.2 km/h 12.9 km/h 80 % 0 mm
18:30 15 °C 11.8 °C 1020.9 hPa SE 6.4 km/h 12.9 km/h 81 % 0 mm
18:35 15 °C 11.8 °C 1020.9 hPa SE 4.8 km/h 12.9 km/h 81 % 0 mm
18:40 15 °C 11.8 °C 1020.9 hPa SE 1.6 km/h 12.9 km/h 81 % 0 mm
18:45 15 °C 11.8 °C 1020.9 hPa ENE 4.8 km/h 12.9 km/h 81 % 0 mm
18:50 15.1 °C 12 °C 1020.9 hPa East 3.2 km/h 8 km/h 82 % 0 mm
18:55 15.1 °C 12 °C 1020.9 hPa SE 1.6 km/h 8 km/h 82 % 0 mm
19:00 15.1 °C 12 °C 1021.2 hPa East 4.8 km/h 8 km/h 82 % 0 mm
19:05 15.1 °C 12.2 °C 1021.2 hPa SE 3.2 km/h 6.4 km/h 83 % 0 mm
19:10 15.1 °C 12.2 °C 1021.2 hPa SE 4.8 km/h 6.4 km/h 83 % 0 mm
19:16 15.1 °C 12.4 °C 1020.9 hPa ESE 4.8 km/h 6.4 km/h 84 % 0 mm
19:21 15.2 °C 12.5 °C 1020.9 hPa SSE 1.6 km/h 6.4 km/h 84 % 0 mm
19:26 15.2 °C 12.7 °C 1020.9 hPa SE 1.6 km/h 8 km/h 85 % 0 mm
19:31 15.3 °C 13 °C 1020.9 hPa ESE 1.6 km/h 8 km/h 86 % 0 mm
19:36 15.3 °C 13.1 °C 1020.9 hPa ESE 4.8 km/h 8 km/h 87 % 0 mm
19:41 15.4 °C 13.4 °C 1020.9 hPa ESE 4.8 km/h 9.7 km/h 88 % 0 mm
19:46 15.4 °C 13.6 °C 1020.9 hPa ESE 6.4 km/h 9.7 km/h 89 % 0 mm
19:51 15.4 °C 13.6 °C 1020.9 hPa East 9.7 km/h 9.7 km/h 89 % 0 mm
19:56 15.4 °C 13.8 °C 1020.9 hPa SSW 6.4 km/h 11.3 km/h 90 % 0 mm
20:01 15.4 °C 13.8 °C 1020.9 hPa SE 4.8 km/h 14.5 km/h 90 % 0 mm
20:06 15.4 °C 13.8 °C 1020.9 hPa SE 1.6 km/h 14.5 km/h 90 % 0 mm
20:11 15.4 °C 13.9 °C 1021.2 hPa ESE 6.4 km/h 14.5 km/h 91 % 0 mm
20:16 15.4 °C 13.9 °C 1020.9 hPa SE 4.8 km/h 11.3 km/h 91 % 0 mm
20:21 15.3 °C 13.8 °C 1020.9 hPa ESE 1.6 km/h 12.9 km/h 91 % 0 mm
20:26 15.3 °C 13.8 °C 1020.9 hPa South 3.2 km/h 12.9 km/h 91 % 0 mm
20:31 15.4 °C 14.1 °C 1020.9 hPa ESE 1.6 km/h 12.9 km/h 92 % 0 mm
20:36 15.4 °C 14.1 °C 1020.9 hPa Calm   9.7 km/h 92 % 0 mm
20:41 15.4 °C 14.1 °C 1020.9 hPa East 3.2 km/h 9.7 km/h 92 % 0 mm
20:46 15.4 °C 14.1 °C 1020.9 hPa ENE 1.6 km/h 9.7 km/h 92 % 0 mm
20:51 15.4 °C 14.1 °C 1020.9 hPa SE 1.6 km/h 6.4 km/h 92 % 0 mm
20:56 15.5 °C 14.2 °C 1020.9 hPa ESE 3.2 km/h 6.4 km/h 92 % 0 mm
21:01 15.5 °C 14.2 °C 1020.5 hPa ESE 3.2 km/h 6.4 km/h 92 % 0 mm
21:07 15.6 °C 14.3 °C 1020.5 hPa SSE 3.2 km/h 6.4 km/h 92 % 0 mm
21:12 15.6 °C 14.3 °C 1020.5 hPa SE 3.2 km/h 6.4 km/h 92 % 0 mm
21:17 15.6 °C 14.3 °C 1020.5 hPa ENE 4.8 km/h 11.3 km/h 92 % 0 mm
21:22 15.6 °C 14.3 °C 1020.5 hPa East 1.6 km/h 11.3 km/h 92 % 0 mm
21:27 15.7 °C 14.6 °C 1020.5 hPa ESE 3.2 km/h 11.3 km/h 93 % 0 mm
21:32 15.8 °C 14.7 °C 1020.5 hPa ESE 3.2 km/h 11.3 km/h 93 % 0 mm
21:37 15.8 °C 14.7 °C 1020.5 hPa SSE 1.6 km/h 12.9 km/h 93 % 0 mm
21:42 15.8 °C 14.7 °C 1020.5 hPa SE 3.2 km/h 12.9 km/h 93 % 0 mm
21:47 15.9 °C 14.8 °C 1020.5 hPa ESE 4.8 km/h 12.9 km/h 93 % 0 mm
21:52 15.9 °C 14.8 °C 1020.5 hPa ESE 9.7 km/h 9.7 km/h 93 % 0 mm
21:57 16 °C 14.9 °C 1020.5 hPa SE 6.4 km/h 11.3 km/h 93 % 0 mm
22:02 16 °C 14.9 °C 1020.5 hPa Calm   11.3 km/h 93 % 0 mm
22:07 16.1 °C 15 °C 1020.5 hPa Calm   11.3 km/h 93 % 0 mm
22:12 16.1 °C 15.1 °C 1020.5 hPa ESE 3.2 km/h 8 km/h 94 % 0 mm
22:17 16.2 °C 15.2 °C 1020.5 hPa SE 3.2 km/h 8 km/h 94 % 0 mm
22:22 16.2 °C 15.2 °C 1020.5 hPa SE 1.6 km/h 8 km/h 94 % 0 mm
22:27 16.2 °C 15.2 °C 1020.5 hPa ESE 8 km/h 8 km/h 94 % 0 mm
22:32 16.2 °C 15.2 °C 1020.5 hPa Calm   9.7 km/h 94 % 0 mm
22:37 16.3 °C 15.3 °C 1020.5 hPa SE 1.6 km/h 9.7 km/h 94 % 0 mm
22:42 16.3 °C 15.3 °C 1020.5 hPa SE 6.4 km/h 9.7 km/h 94 % 0 mm
22:47 16.3 °C 15.3 °C 1020.2 hPa SE 4.8 km/h 9.7 km/h 94 % 0 mm
22:52 16.3 °C 15.3 °C 1020.2 hPa ESE 1.6 km/h 9.7 km/h 94 % 0 mm
22:57 16.4 °C 15.4 °C 1020.2 hPa ESE 4.8 km/h 9.7 km/h 94 % 0 mm
23:02 16.4 °C 15.4 °C 1019.9 hPa East 4.8 km/h 9.7 km/h 94 % 0 mm
23:07 16.5 °C 15.5 °C 1019.9 hPa ESE 4.8 km/h 9.7 km/h 94 % 0 mm
23:12 16.6 °C 15.6 °C 1019.9 hPa ESE 4.8 km/h 9.7 km/h 94 % 0 mm
23:17 16.7 °C 15.7 °C 1019.9 hPa SE 4.8 km/h 9.7 km/h 94 % 0 mm
23:22 16.8 °C 16 °C 1019.9 hPa SE 1.6 km/h 11.3 km/h 95 % 0 mm
23:27 16.8 °C 16 °C 1019.9 hPa SE 9.7 km/h 11.3 km/h 95 % 0 mm
23:32 16.9 °C 16.1 °C 1019.9 hPa SSE 6.4 km/h 11.3 km/h 95 % 0 mm
23:37 17.1 °C 16.3 °C 1019.5 hPa SE 6.4 km/h 12.9 km/h 95 % 0 mm
23:42 17.1 °C 16.3 °C 1019.5 hPa ESE 6.4 km/h 12.9 km/h 95 % 0 mm
23:47 17.2 °C 16.4 °C 1019.5 hPa SE 8 km/h 12.9 km/h 95 % 0 mm
23:52 17.2 °C 16.4 °C 1019.5 hPa South 6.4 km/h 14.5 km/h 95 % 0 mm
23:57 17.2 °C 16.4 °C 1019.5 hPa East 4.8 km/h 14.5 km/h 95 % 0 mm
Spring, Texas: Villages of Bridgestone
Compliments of Weather Underground - 2.75 mb

Script developed by  Jim McMurry - jmcmurry@mwt.net Adapted for the template by  Wim van der Kuil - Leuven-Template.eu

You find our weather info also at:

UK Metoffice

WeatherCloud

Weather Underground

Mid-South Weather Network

AWEKAS

Citizen Weather Observer Program (CWOP)

HAMweather, WeatherForYou, PWS Weather

Equipment we use:

Weather-station
Davis Vantage Vue

Weather-program
Meteohub

Weather-server
Debian 7.9 x86 (Guest)

Provider
DreamHost

Davis Vantage Vue

Meteohub

Debian 7.9 x86 (Guest)

DreamHost